Miscellaneous Local Product
Issued by NWS Hastings, NE

Home | Current Version | Previous Version | Graphics & Text | Print | Product List | Glossary On
Versions: 1 2 3 4 5 6 7 8 9 10 11 12 13 14 15 16 17 18 19 20 21 22 23 24 25 26 27 28 29 30 31 32 33 34 35 36 37 38 39 40 41 42 43 44 45 46 47 48 49 50
000
AXUS43 KGID 300802
MISGRI

GID CWA HOURLY WEATHER ROUNDUP
NATIONAL WEATHER SERVICE HASTINGS NE
300 AM CDT MON MAY 30 2016

NOTE: "FAIR" INDICATES FEW OR NO CLOUDS BELOW 12,000 FEET WITH NO
SIGNIFICANT WEATHER AND/OR OBSTRUCTIONS TO VISIBILITY.

...SOUTH CENTRAL NEBRASKA...

CITY           SKY/WX    TMP DP  RH WIND       PRES   REMARKS
GRAND ISLAND   PTCLDY    64  52  64 SW10      29.98F
HASTINGS       PTCLDY    62  52  69 SW5       29.98F
KEARNEY        PTCLDY    63  52  67 S8        30.01F
ORD            CLOUDY    64  52  64 SW12      29.96F
YORK           CLOUDY    64  52  63 W5        29.98S
AURORA         PTCLDY    64  53  68 W7        29.98F
LEXINGTON      PTCLDY    64  51  62 SW9       30.02F
HOLDREGE       MOCLDY    60  52  74 SE5       30.02F
HEBRON         MOCLDY    64  53  66 SW3       29.98S

...NEBRASKA PANHANDLE...

CITY           SKY/WX    TMP DP  RH WIND       PRES   REMARKS
CHADRON        CLOUDY    58  46  64 S14       29.96F
ALLIANCE       CLOUDY    56  51  84 S14       30.02F
SCOTTSBLUFF    CLOUDY    59  50  72 SE10      30.02F
SIDNEY         CLOUDY    56  49  77 S15       30.07F

...WESTERN AND NORTH CENTRAL NEBRASKA...

CITY           SKY/WX    TMP DP  RH WIND       PRES   REMARKS
VALENTINE      CLOUDY    57  52  83 SE7       29.96F
AINSWORTH      CLOUDY    64  51  64 S9        29.96F
ONEILL         CLOUDY    66  58  75 SE7       29.99F
BROKEN BOW     CLOUDY    61  53  75 SW5       30.00F
IMPERIAL       CLOUDY    59  51  75 SE6       30.02F
NORTH PLATTE   CLOUDY    61  52  72 S9        29.98F
MCCOOK         CLOUDY    60  52  74 SE5       30.02F

...EASTERN NEBRASKA...

CITY           SKY/WX    TMP DP  RH WIND       PRES   REMARKS
NORFOLK        CLOUDY    66  55  67 W7        29.98F
SO SIOUX CITY  CLOUDY    63  57  81 S3        30.00R
TEKAMAH          N/A    N/A N/A N/A MISG      29.98F
COLUMBUS       CLOUDY    66  50  55 CALM      29.98F
ALBION         CLOUDY    64  55  73 CALM      29.99F
OMAHA EPPLEY   CLOUDY    69  60  73 SE6       29.99S
OFFUTT AFB     CLOUDY    64  62  91 E3        29.98F
MILLARD        CLOUDY    65  60  84 CALM      29.99F
LINCOLN        MOCLDY    67  58  72 CALM      29.99F
NEBRASKA CITY  CLOUDY    65  64  98 S6        30.00F
BEATRICE       PTCLDY    65  59  81 SE5       30.00F
FALLS CITY     PTCLDY    66  63  90 S3        30.00F

...NORTHERN KANSAS...

CITY           SKY/WX    TMP DP  RH WIND       PRES   REMARKS
GOODLAND       PTCLDY    55  51  86 SW7       30.09F
HILL CITY      MOCLDY    58  53  84 W7        30.04S
NORTON         SUNNY     57  48  72 W5        30.01F
PHILLIPSBURG   CLEAR     57  57 100 NW6       30.00F
SMITH CENTER   CLEAR     55  54  94 S5        30.01F
BELOIT         CLEAR     63  59  88 CALM      29.99F
HAYS           PTCLDY    61  50  67 SW7       30.03F
RUSSELL        NOT AVBL
CONCORDIA      CLEAR     64  59  83 S7        30.01S
SALINA         CLOUDY    63  60  90 S3        30.01F
TOPEKA         CLEAR     64  62  93 CALM      30.02F



USA.gov is the U.S. government's official web portal to all federal, state and local government web resources and services.